Weather History for Oxford, CT

Change the Weather History Date:

Tuesday, March 11, 2014

  Actual Average Record
Temperature  
Mean Temperature 45 °F -  
Max Temperature 57 °F 39 °F 57 °F (2012)
Min Temperature 33 °F 24 °F 6 °F (2003)
Degree Days  
Heating Degree Days 20    
Moisture  
Dew Point 28 °F    
Average Humidity 58    
Maximum Humidity 75    
Minimum Humidity 31    
Precipitation  
Precipitation 0.00 in - - ()
Sea Level Pressure  
Sea Level Pressure 29.63 in    
Wind  
Wind Speed 5 mph (West)    
Max Wind Speed 12 mph    
Max Gust Speed 21 mph    
Visibility 10 miles    
Events      
Averages and records for this station are not official NWS values.
T = Trace of Precipitation, MM = Missing Value Source: NWS Daily Summary

Daily Weather History Graph

Daily Weather History Graph

Search for Another Location

Airport:

Trip Planner

Search our weather history database for the weather conditions in past years. The results will help you decide how hot, cold, wet, or windy it might be!

Date:

Astronomy

Mar. 11, 2014 Rise Set
Actual Time 7:11 AM EDT 6:54 PM EDT
Civil Twilight 6:43 AM EDT 7:22 PM EDT
Nautical Twilight 6:11 AM EDT 7:54 PM EDT
Astronomical Twilight 5:39 AM EDT 8:26 PM EDT
Moon 2:26 PM EDT (3/11) 4:05 AM EDT (3/11)
Length of Visible Light 12h 38m
Length of Day
11h 43m
Waxing Gibbous, 78% of the Moon is Illuminated
Mar 11
Waxing Gibbous
Mar 16
Full
Mar 23
Last Quarter
Mar 30
New
Apr 7
First Quarter

Hourly Weather History & Observations

Time (EDT) Temp. Windchill Dew Point Humidity Pressure Visibility Wind Dir Wind Speed Gust Speed Precip Events Conditions
12:15 AM 35.6 °F 29.9 °F 28.4 °F 75% 29.61 in 8.0 mi South 6.9 mph - N/A   Overcast
12:35 AM 35.6 °F 30.7 °F 28.4 °F 75% 29.60 in 9.0 mi SSW 5.8 mph - N/A   Overcast
12:55 AM 37.4 °F 33.8 °F 28.4 °F 70% 29.58 in 9.0 mi SSW 4.6 mph - N/A   Scattered Clouds
1:15 AM 37.4 °F 33.8 °F 28.4 °F 70% 29.58 in 10.0 mi SW 4.6 mph - N/A   Clear
1:35 AM 35.6 °F 32.8 °F 28.4 °F 75% 29.58 in 9.0 mi SSW 3.5 mph - N/A   Clear
1:55 AM 35.6 °F 30.7 °F 28.4 °F 75% 29.57 in 9.0 mi WSW 5.8 mph - N/A   Clear
2:15 AM 35.6 °F - 28.4 °F 75% 29.57 in 8.0 mi Calm Calm - N/A   Clear
2:35 AM 35.6 °F 32.8 °F 28.4 °F 75% 29.57 in 8.0 mi WSW 3.5 mph - N/A   Clear
2:55 AM 35.6 °F 32.8 °F 28.4 °F 75% 29.56 in 9.0 mi SW 3.5 mph - N/A   Clear
3:15 AM 35.6 °F - 28.4 °F 75% 29.55 in 10.0 mi Calm Calm - N/A   Clear
3:35 AM 35.6 °F - 28.4 °F 75% 29.54 in 9.0 mi Calm Calm - N/A   Clear
3:55 AM 33.8 °F - 26.6 °F 75% 29.54 in 8.0 mi Calm Calm - N/A   Clear
4:15 AM 33.8 °F 29.6 °F 26.6 °F 75% 29.54 in 9.0 mi NNW 4.6 mph - N/A   Clear
4:35 AM 37.4 °F 33.8 °F 28.4 °F 70% 29.54 in 10.0 mi WNW 4.6 mph - N/A   Clear
4:55 AM 37.4 °F 32.1 °F 28.4 °F 70% 29.55 in 10.0 mi West 6.9 mph - N/A   Clear
5:15 AM 39.2 °F 34.2 °F 28.4 °F 65% 29.55 in 10.0 mi West 6.9 mph - N/A   Clear
5:35 AM 39.2 °F 34.2 °F 28.4 °F 65% 29.56 in 10.0 mi West 6.9 mph - N/A   Clear
5:45 AM 39.2 °F 34.2 °F 28.4 °F 65% 29.56 in 10.0 mi West 6.9 mph - N/A   Scattered Clouds
6:45 AM 35.6 °F - 26.6 °F 70% 29.59 in 10.0 mi Calm Calm - N/A   Scattered Clouds
7:55 AM 39.2 °F 35.0 °F 28.4 °F 65% 29.62 in 8.0 mi West 5.8 mph - N/A   Mostly Cloudy
8:50 AM 41.0 °F 37.1 °F 28.4 °F 61% 29.63 in 8.0 mi West 5.8 mph - N/A   Mostly Cloudy
9:50 AM 44.6 °F 40.2 °F 32.0 °F 61% 29.63 in 8.0 mi West 8.1 mph - N/A   Mostly Cloudy
10:45 AM 50.0 °F - 33.8 °F 54% 29.63 in 10.0 mi West 8.1 mph - N/A   Scattered Clouds
11:45 AM 51.8 °F - 33.8 °F 50% 29.62 in 10.0 mi West 8.1 mph - N/A   Scattered Clouds
12:45 PM 53.6 °F - 35.6 °F 51% 29.62 in 10.0 mi West 8.1 mph - N/A   Scattered Clouds
1:45 PM 55.4 °F - 30.2 °F 38% 29.62 in 10.0 mi WNW 11.5 mph 18.4 mph N/A   Scattered Clouds
2:45 PM 55.4 °F - 28.4 °F 36% 29.61 in 10.0 mi WNW 11.5 mph 20.7 mph N/A   Partly Cloudy
3:45 PM 57.2 °F - 28.4 °F 33% 29.62 in 10.0 mi WNW 11.5 mph 20.7 mph N/A   Scattered Clouds
4:45 PM 57.2 °F - 28.4 °F 33% 29.63 in 10.0 mi WNW 5.8 mph - N/A   Scattered Clouds
5:45 PM 57.2 °F - 26.6 °F 31% 29.64 in 10.0 mi Calm Calm - N/A   Scattered Clouds
6:45 PM 55.4 °F - 26.6 °F 33% 29.67 in 10.0 mi Calm Calm - N/A   Scattered Clouds
7:45 PM 48.2 °F - 24.8 °F 40% 29.70 in 10.0 mi Calm Calm - N/A   Partly Cloudy
8:45 PM 42.8 °F - 24.8 °F 49% 29.72 in 10.0 mi Calm Calm - N/A   Partly Cloudy
8:55 PM 42.8 °F 39.3 °F 24.8 °F 49% 29.72 in 10.0 mi NNE 5.8 mph - N/A   Clear
9:15 PM 46.4 °F 45.2 °F 26.6 °F 46% 29.73 in 10.0 mi NNE 3.5 mph - N/A   Clear
9:35 PM 44.6 °F 42.2 °F 24.8 °F 46% 29.73 in 10.0 mi NNE 4.6 mph - N/A   Scattered Clouds
9:55 PM 42.8 °F 41.1 °F 24.8 °F 49% 29.73 in 10.0 mi ESE 3.5 mph - N/A   Partly Cloudy
10:15 PM 42.8 °F 41.1 °F 24.8 °F 49% 29.73 in 10.0 mi NNE 3.5 mph - N/A   Scattered Clouds
10:35 PM 44.6 °F 43.1 °F 26.6 °F 49% 29.74 in 10.0 mi North 3.5 mph - N/A   Overcast
10:55 PM 42.8 °F 41.1 °F 24.8 °F 49% 29.73 in 10.0 mi NE 3.5 mph - N/A   Scattered Clouds
11:15 PM 46.4 °F 45.2 °F 26.6 °F 46% 29.73 in 10.0 mi NE 3.5 mph - N/A   Scattered Clouds
11:35 PM 44.6 °F 43.1 °F 24.8 °F 46% 29.73 in 10.0 mi South 3.5 mph - N/A   Mostly Cloudy
11:55 PM 44.6 °F 43.1 °F 24.8 °F 46% 29.73 in 10.0 mi SSW 3.5 mph - N/A   Overcast